Lid_Strength_Index
1 3 5 4 5 5 5 5 5 5 4 4 3 3 3 3 3 2 3 3 3 3
4 4 5 4 3 4 5 5 4 4 4 4 4 3 3 3 3 3 3 3 2 2
4 4 3 3 3 3 4 4 5 5 5 4 4 3 3 3 3 3 3 3 2 2
4 3 3 3 3 4 4 4 4 4 4 4 4 4 3 3 3 3 2 2 2 2
3 3 3 3 4 4 4 4 4 4 4 4 4 4 4 4 4 3 3 2 2 3
3 3 3 4 4 4 4 4 4 4 4 4 4 4 4 4 4 3 3 2 2 2
4 3 4 4 4 4 4 4 4 4 4 4 4 4 4 3 3 3 3 2 2 2
4 4 4 4 4 4 4 5 4 5 4 4 4 5 4 3 3 3 3 2 2 2
4 4 4 4 4 5 5 5 5 5 4 4 5 8 7 5 3 3 3 3 3 3
5 5 5 5 5 5 5 5 5 5 4 5 5 9 8 7 3 3 3 3 3 4
5 5 5 5 5 5 5 5 5 5 4 5 6 9 9 8 3 3 4 4 4 5
5 5 5 5 5 5 5 5 6 5 5 4 5 10 10 7 4 4 4 5 5 6
5 5 5 5 5 5 5 6 6 6 5 8 5 10 10 8 5 5 5 5 6 9
5 5 5 5 5 5 6 6 6 6 6 5 7 7 10 10 6 6 7 7 7 7